GW0968 Weather Reports


Display with metric or nautical units.
time (UTC)temp
F
wind
direction
speed
MPH
gust
MPH
rain 1hr
in
rain 24hr
in
rain mn
in
humidity
%
barometer
mb
20260503023119 34 37 0.0 1.0 0.00 0.14 0.14 88 1014.2
20260503022532 34 37 0.0 1.0 0.00 0.14 0.14 87 1014.4
20260503022025 35 37 0.0 1.0 0.00 0.14 0.14 86 1014.4
20260503021614 35 37 0.0 1.0 0.00 0.14 0.14 85 1014.5
20260503021021 35 37 0.0 2.0 0.00 0.14 0.14 85 1014.4
20260503020519 35 37 0.0 2.0 0.00 0.14 0.14 85 1014.5
20260503020125 35 37 0.0 3.0 0.00 0.14 0.14 84 1014.3
20260503015519 35 59 0.0 3.0 0.00 0.14 0.14 84 1014.5
20260503015019 35 55 0.0 3.0 0.00 0.14 0.14 83 1014.6
20260503014558 35 84 0.0 3.0 0.00 0.14 0.14 83 1014.5
20260503014017 35 79 1.0 3.0 0.00 0.14 0.14 82 1014.6
20260503013521 35 67 0.0 4.0 0.00 0.14 0.14 83 1014.6
20260503013133 35 100 2.0 4.0 0.00 0.14 0.14 81 1014.1
20260503012520 35 63 0.0 3.0 0.00 0.14 0.14 84 1014.7
20260503012021 35 50 0.0 2.0 0.00 0.14 0.14 85 1014.4
20260503011638 35 33 1.0 3.0 0.00 0.14 0.14 84 1014.7
20260503011024 35 15 1.0 3.0 0.00 0.14 0.14 84 1014.6
20260503010519 35 67 0.0 3.0 0.00 0.14 0.14 85 1014.4
20260503010202 35 355 0.0 3.0 0.00 0.14 0.14 86 1014.5
20260503005520 35 355 0.0 3.0 0.00 0.14 0.14 86 1014.4
20260503005019 35 336 0.0 2.0 0.00 0.14 0.14 87 1014.4
20260503004620 35 337 0.0 2.0 0.00 0.14 0.14 88 1014.3
20260503004022 35 14 0.0 0.0 0.00 0.14 0.14 88 1014.3
20260503003526 35 14 0.0 0.0 0.00 0.14 0.14 88 1014.3
20260503003120 35 14 0.0 1.0 0.00 0.14 0.14 87 1014.1
20260503002524 35 14 0.0 1.0 0.00 0.14 0.14 87 1014.2
20260503002020 35 14 0.0 2.0 0.00 0.14 0.14 86 1014.2
20260503001614 35 18 0.0 2.0 0.00 0.14 0.14 86 1013.9
20260503001019 35 34 0.0 2.0 0.00 0.14 0.14 86 1014.0
20260503000520 35 80 0.0 2.0 0.00 0.14 0.14 87 1013.9
20260503000122 35 80 0.0 2.0 0.00 0.14 0.14 86 1013.8
20260502235529 35 80 0.0 0.0 0.00 0.14 0.14 87 1013.9
20260502235021 35 80 0.0 1.0 0.00 0.14 0.14 86 1013.9
20260502234630 35 80 0.0 1.0 0.00 0.14 0.14 85 1014.0
20260502234035 35 80 0.0 1.0 0.00 0.14 0.14 86 1014.2
20260502233521 35 79 0.0 1.0 0.00 0.14 0.14 86 1014.1
20260502233132 35 79 0.0 3.0 0.00 0.14 0.14 86 1013.9
20260502232535 35 79 1.0 3.0 0.00 0.14 0.14 86 1014.1
20260502232022 35 72 1.0 3.0 0.00 0.14 0.14 87 1013.9
20260502231621 35 30 0.0 4.0 0.00 0.14 0.14 86 1014.1
20260502231022 35 46 1.0 4.0 0.00 0.14 0.14 86 1014.1
20260502230521 35 83 1.0 4.0 0.00 0.14 0.14 87 1014.1
20260502230125 35 52 2.0 5.0 0.00 0.14 0.14 87 1014.0
20260502225522 35 57 2.0 5.0 0.00 0.14 0.14 87 1013.8
20260502225022 36 43 1.0 4.0 0.00 0.14 0.14 87 1013.8
20260502224614 36 28 1.0 3.0 0.00 0.14 0.14 87 1014.0
20260502224023 36 55 1.0 6.0 0.00 0.14 0.14 88 1014.0
20260502223521 36 89 2.0 6.0 0.00 0.14 0.14 87 1014.0
20260502223120 35 71 2.0 5.0 0.00 0.14 0.14 87 1014.1
20260502222525 35 64 2.0 8.0 0.00 0.14 0.14 88 1013.9
20260502222022 35 29 2.0 8.0 0.00 0.14 0.14 87 1013.7
20260502221617 35 44 2.0 6.0 0.00 0.14 0.14 88 1013.8
20260502221030 36 59 2.0 6.0 0.00 0.14 0.14 88 1013.8
20260502220526 36 75 3.0 8.0 0.00 0.14 0.14 88 1013.8
20260502220138 35 49 4.0 9.0 0.00 0.14 0.14 88 1013.7
20260502215524 35 26 5.0 11.0 0.00 0.14 0.14 88 1014.0
20260502215021 36 57 3.0 9.0 0.00 0.14 0.14 89 1013.9
20260502214623 36 40 3.0 7.0 0.00 0.14 0.14 89 1013.9
20260502214021 36 65 3.0 9.0 0.00 0.14 0.14 89 1013.8
20260502213520 36 71 4.0 11.0 0.00 0.14 0.14 87 1013.7
20260502213126 37 92 5.0 11.0 0.00 0.14 0.14 85 1013.6
20260502212525 37 19 4.0 11.0 0.00 0.14 0.14 83 1013.7
20260502212024 38 337 4.0 8.0 0.00 0.14 0.14 82 1013.7
20260502211626 38 20 3.0 12.0 0.00 0.14 0.14 82 1013.4
20260502211024 38 38 4.0 12.0 0.00 0.14 0.14 82 1013.4
20260502210523 38 97 2.0 10.0 0.00 0.14 0.14 83 1013.5
20260502210111 38 304 2.0 10.0 0.00 0.14 0.14 83 1013.5
20260502205526 38 53 4.0 10.0 0.00 0.14 0.14 81 1013.6
20260502205020 38 42 2.0 8.0 0.00 0.14 0.14 84 1013.6
20260502204617 38 57 3.0 8.0 0.00 0.14 0.14 83 1013.6
20260502204024 37 318 3.0 9.0 0.00 0.14 0.14 84 1013.6
20260502203519 37 65 4.0 10.0 0.00 0.14 0.14 85 1013.6
20260502203112 37 20 3.0 10.0 0.00 0.14 0.14 85 1013.5
20260502202525 37 60 3.0 9.0 0.00 0.14 0.14 85 1013.7
20260502202025 37 346 2.0 6.0 0.00 0.14 0.14 85 1013.6
20260502201636 37 51 3.0 12.0 0.00 0.14 0.14 83 1013.6
20260502201024 37 21 3.0 12.0 0.00 0.14 0.14 84 1013.8
20260502200523 37 58 2.0 9.0 0.00 0.14 0.14 86 1013.8
20260502200109 37 30 3.0 9.0 0.00 0.14 0.14 85 1013.6
20260502195525 38 97 3.0 8.0 0.00 0.14 0.14 84 1013.7
20260502195020 38 97 2.0 13.0 0.00 0.14 0.14 85 1013.7
20260502194620 38 46 5.0 13.0 0.00 0.14 0.14 83 1013.7
20260502194022 39 9 2.0 5.0 0.00 0.14 0.14 83 1013.5
20260502193525 39 14 2.0 5.0 0.00 0.14 0.14 84 1013.5
20260502193119 39 33 1.0 5.0 0.00 0.14 0.14 84 1013.5
20260502192522 39 347 2.0 8.0 0.00 0.14 0.14 84 1013.5
20260502192025 39 49 2.0 9.0 0.00 0.14 0.14 83 1013.4
20260502191617 39 39 2.0 6.0 0.00 0.14 0.14 82 1013.4
20260502191021 39 22 2.0 6.0 0.00 0.14 0.14 81 1013.4
20260502190521 39 36 3.0 8.0 0.00 0.14 0.14 81 1013.3
20260502190115 40 71 3.0 9.0 0.00 0.14 0.14 81 1013.4
20260502185521 40 42 3.0 9.0 0.00 0.14 0.14 80 1013.3
20260502185022 40 65 3.0 8.0 0.00 0.14 0.14 79 1013.3
20260502184618 40 88 4.0 9.0 0.00 0.14 0.14 79 1013.3
20260502184021 40 84 4.0 9.0 0.00 0.14 0.14 81 1013.3
20260502183521 40 80 2.0 8.0 0.00 0.14 0.14 81 1013.3
20260502183239 40 89 2.0 7.0 0.00 0.14 0.14 84 1013.4
20260502182526 40 25 3.0 11.0 0.00 0.14 0.14 84 1013.3
20260502182024 40 86 6.0 11.0 0.00 0.14 0.14 83 1013.3
20260502181614 40 360 5.0 11.0 0.00 0.14 0.14 84 1013.3
20260502181028 40 46 4.0 11.0 0.00 0.14 0.14 88 1013.4
20260502180518 39 34 4.0 9.0 0.00 0.14 0.14 87 1013.4
20260502180235 39 100 3.0 9.0 0.00 0.14 0.14 88 1013.3
20260502170313 38 80 3.0 9.0 0.02 0.14 0.14 88 1013.1
20260502164036 43 130 2.0 4.0 0.00 0.12 0.12 78 1012.8
20260502163530 44 45 1.0 6.0 0.00 0.12 0.12 77 1012.9
20260502163317 44 228 2.0 9.0 0.00 0.12 0.12 82 1014.2
20260502162536 43 344 1.0 9.0 0.00 0.12 0.12 87 1014.2
20260502162124 41 229 3.0 7.0 0.00 0.12 0.12 84 1013.8
20260502161800 40 207 1.0 3.0 0.00 0.12 0.12 84 1013.6
20260502161049 39 78 0.0 4.0 0.00 0.12 0.12 84 1013.4
20260502160537 39 35 1.0 4.0 0.00 0.12 0.12 84 1013.4
20260502152042 42 78 1.0 6.0 0.00 0.12 0.12 76 1012.8
20260502151736 42 74 2.0 5.0 0.00 0.12 0.12 76 1013.0
20260502151027 42 40 1.0 6.0 0.00 0.12 0.12 79 1013.2
20260502150530 42 36 2.0 6.0 0.00 0.12 0.12 76 1013.4
20260502150321 42 149 2.0 6.0 0.00 0.12 0.12 78 1013.1
20260502130559 36 5 2.0 5.0 0.00 0.12 0.12 93 1014.0
20260502130232 36 82 1.0 5.0 0.00 0.12 0.12 93 1014.0
20260502123543 36 90 2.0 4.0 0.00 0.12 0.12 93 1013.6
20260502123212 36 28 1.0 3.0 0.01 0.12 0.12 93 1013.8
20260502122647 36 30 1.0 3.0 0.01 0.12 0.12 93 1014.0
20260502122040 36 74 0.0 3.0 0.01 0.12 0.12 94 1013.8
20260502121754 36 46 1.0 3.0 0.01 0.12 0.12 94 1013.8
20260502121036 36 10 1.0 3.0 0.01 0.12 0.12 94 1013.6
20260502120547 35 28 1.0 4.0 0.01 0.12 0.12 94 1013.6
20260502120240 35 13 0.0 3.0 0.01 0.12 0.12 95 1014.1
20260502115537 35 36 1.0 3.0 0.01 0.12 0.12 95 1014.1
20260502115033 35 46 0.0 2.0 0.01 0.12 0.12 95 1013.9
20260502114650 34 53 1.0 3.0 0.01 0.12 0.12 94 1013.7
20260502114029 34 52 1.0 3.0 0.01 0.12 0.12 94 1013.8
20260502113530 34 77 1.0 3.0 0.01 0.12 0.12 94 1013.7
20260502113057 34 53 1.0 3.0 0.00 0.11 0.11 95 1013.8
20260502112532 34 43 0.0 3.0 0.01 0.11 0.11 95 1013.7
20260502112053 34 22 1.0 4.0 0.01 0.11 0.11 95 1013.6
20260502111832 34 42 1.0 5.0 0.01 0.11 0.11 95 1013.7
20260502111028 34 9 2.0 5.0 0.01 0.11 0.11 95 1013.7
20260502110540 34 32 0.0 3.0 0.01 0.11 0.11 95 1013.6
20260502110309 34 15 0.0 2.0 0.01 0.11 0.11 95 1013.7
20260502105544 34 45 0.0 2.0 0.01 0.11 0.11 95 1013.8
20260502105020 34 12 0.0 1.0 0.01 0.11 0.11 94 1013.8
20260502104947 34 13 0.0 1.0 0.01 0.11 0.11 94 1013.5
20260502104033 34 13 0.0 2.0 0.01 0.11 0.11 95 1013.6
20260502103537 34 360 0.0 3.0 0.01 0.11 0.11 94 1013.5
20260502103316 34 61 1.0 3.0 0.01 0.11 0.11 95 1013.5
20260502102536 34 28 1.0 3.0 0.00 0.09 0.09 95 1013.4
20260502102048 34 38 1.0 3.0 0.00 0.09 0.09 95 1013.5
20260502101715 34 63 1.0 2.0 0.00 0.09 0.09 95 1013.4
20260502101110 34 47 0.0 3.0 0.00 0.09 0.09 95 1013.5
20260502100625 34 30 1.0 3.0 0.00 0.09 0.09 95 1013.4
20260502100119 34 19 0.0 2.0 0.01 0.09 0.09 95 1013.5
20260502091020 33 73 0.0 1.0 0.01 0.09 0.09 94 1012.9
20260502090521 33 73 0.0 1.0 0.02 0.09 0.09 94 1012.9
20260502071015 34 73 0.0 0.0 0.04 0.07 0.07 91 1013.5
20260502070518 34 73 0.0 1.0 0.04 0.06 0.06 90 1013.5
20260502070115 34 73 0.0 1.0 0.04 0.06 0.06 90 1013.3
20260502065516 35 73 0.0 1.0 0.04 0.04 0.04 91 1013.3
20260502065016 35 73 0.0 1.0 0.04 0.04 0.04 91 1013.5
20260502064603 35 73 0.0 2.0 0.03 0.04 0.04 90 1013.5
20260502064021 35 73 0.0 2.0 0.04 0.04 0.04 90 1013.5
20260502063519 35 70 1.0 2.0 0.04 0.04 0.04 90 1013.5
20260502063124 35 16 0.0 2.0 0.04 0.04 0.04 90 1013.6
20260502062518 35 28 0.0 2.0 0.03 0.03 0.03 90 1013.7
20260502062019 36 38 0.0 3.0 0.03 0.03 0.03 89 1013.6
20260502061606 36 40 0.0 3.0 0.03 0.03 0.03 89 1013.4
20260502061017 36 254 0.0 1.0 0.03 0.03 0.03 89 1013.6
20260502060519 36 254 0.0 2.0 0.02 0.02 0.02 88 1013.6
20260502060110 36 254 0.0 3.0 0.02 0.02 0.02 87 1013.7
20260502055537 36 254 0.0 3.0 0.01 0.01 0.01 87 1013.7
20260502055021 36 322 0.0 2.0 0.01 0.01 0.01 87 1013.6
20260502054618 37 18 0.0 0.0 0.01 0.01 0.01 87 1013.5
20260502054023 37 18 0.0 0.0 0.00 0.00 0.00 86 1013.6
20260502053524 37 18 0.0 0.0 0.00 0.00 0.00 85 1013.5
20260502053100 37 18 0.0 0.0 0.00 0.00 0.00 84 1013.5
20260502052515 37 18 0.0 0.0 0.00 0.00 0.00 84 1013.5
20260502052012 38 18 0.0 0.0 0.00 0.00 0.00 83 1013.7
20260502051540 38 18 0.0 0.0 0.00 0.00 0.00 83 1013.6
20260502051008 38 18 0.0 0.0 0.00 0.00 0.00 82 1013.7
20260502050515 38 18 0.0 1.0 0.00 0.00 0.00 81 1013.9
20260502050053 38 18 0.0 1.0 0.00 0.00 0.00 80 1013.8
20260502045519 38 18 0.0 2.0 0.00 0.01 0.00 79 1013.7
20260502045028 39 18 0.0 2.0 0.00 0.01 0.00 78 1013.8
20260502044831 39 338 0.0 2.0 0.00 0.01 0.00 76 1013.8
20260502044015 39 338 0.0 2.0 0.00 0.01 0.00 74 1013.7
20260502043520 39 339 0.0 3.0 0.00 0.01 0.00 73 1013.7
20260502043056 39 334 1.0 3.0 0.00 0.01 0.00 73 1013.6
20260502042519 39 30 0.0 2.0 0.00 0.01 0.00 73 1013.6
20260502042021 39 30 0.0 2.0 0.00 0.01 0.00 71 1013.5
20260502041604 40 27 0.0 2.0 0.00 0.01 0.00 71 1013.6
20260502041018 40 40 0.0 2.0 0.00 0.01 0.00 71 1013.6
20260502040518 40 40 0.0 3.0 0.00 0.01 0.00 71 1013.5
20260502035517 40 355 2.0 3.0 0.00 0.01 0.01 68 1013.5
20260502035015 40 40 1.0 3.0 0.00 0.01 0.01 68 1013.4
20260502034602 40 58 0.0 3.0 0.00 0.01 0.01 66 1013.6
20260502034018 41 45 0.0 2.0 0.00 0.01 0.01 67 1013.5
20260502033523 41 45 0.0 3.0 0.00 0.01 0.01 64 1013.4
20260502033110 41 54 0.0 3.0 0.00 0.01 0.01 65 1013.6
20260502032519 41 59 0.0 2.0 0.00 0.01 0.01 64 1013.6
20260502032018 41 45 0.0 3.0 0.00 0.01 0.01 64 1013.6
20260502031608 41 93 1.0 3.0 0.00 0.01 0.01 64 1013.7
20260502031019 41 52 0.0 3.0 0.00 0.01 0.01 63 1013.7
20260502030519 41 42 0.0 2.0 0.00 0.01 0.01 64 1013.7
20260502030119 41 65 0.0 5.0 0.00 0.01 0.01 62 1013.7
20260502025518 41 55 2.0 5.0 0.00 0.01 0.01 65 1013.8
20260502025025 41 80 2.0 6.0 0.00 0.01 0.01 65 1013.7
20260502024607 41 352 0.0 2.0 0.00 0.01 0.01 61 1013.7
20260502024025 41 352 0.0 1.0 0.00 0.01 0.01 62 1013.7
20260502023519 41 348 0.0 3.0 0.00 0.01 0.01 62 1013.8